This is the latest recevied weather packets stored in our database for station/object M0JUI-1. If no packets are shown the sender has not sent any weather packets the latest 10 day(s).
| Time | Temp. | Humidity | Pressure | Rain* | Wind** | Luminosity | Snow |
|---|---|---|---|---|---|---|---|
| 1788121317 | 15° C | 16% | 1004 hPa | 0 mm | - | 0 W/m² | - |
| 1788121016 | 15° C | 16% | 1004.3 hPa | 0 mm | - | 0 W/m² | - |
| 1788120717 | 15° C | 16% | 1004.4 hPa | 0 mm | - | 0 W/m² | - |
| 1788120416 | 14.44° C | 15% | 1004.2 hPa | 0 mm | - | 0 W/m² | - |
| 1788120117 | 14.44° C | 15% | 1004.6 hPa | 0 mm | - | 0 W/m² | - |
| 1788119816 | 14.44° C | 15% | 1004.3 hPa | 0 mm | - | 0 W/m² | - |
| 1788119516 | 14.44° C | 15% | 1004.5 hPa | 0 mm | - | 0 W/m² | - |
| 1788119216 | 14.44° C | 15% | 1004.3 hPa | 0 mm | - | 0 W/m² | - |
| 1788118916 | 14.44° C | 15% | 1004 hPa | 0 mm | - | 0 W/m² | - |
| 1788118616 | 14.44° C | 15% | 1004.1 hPa | 0 mm | - | 0 W/m² | - |
| 1788118316 | 14.44° C | 14% | 1004.4 hPa | 0 mm | - | 0 W/m² | - |
| 1788118016 | 14.44° C | 14% | 1004.5 hPa | 0 mm | - | 0 W/m² | - |
| 1788117716 | 14.44° C | 14% | 1004.5 hPa | 0 mm | - | 0 W/m² | - |
| 1788117416 | 14.44° C | 14% | 1004.4 hPa | 0 mm | - | 0 W/m² | - |
| 1788117116 | 14.44° C | 14% | 1004.3 hPa | 0 mm | - | 0 W/m² | - |
| 1788116817 | 14.44° C | 14% | 1004.3 hPa | 0 mm | - | 0 W/m² | - |
| 1788116517 | 14.44° C | 13% | 1004.4 hPa | 0 mm | - | 0 W/m² | - |
| 1788116218 | 14.44° C | 13% | 1004.4 hPa | 0 mm | - | 3 W/m² | - |
| 1788115916 | 15° C | 13% | 1004.6 hPa | 0 mm | - | 7 W/m² | - |
| 1788115616 | 15° C | 13% | 1004.5 hPa | 0 mm | - | 10 W/m² | - |
| 1788115317 | 15° C | 13% | 1004.6 hPa | 0 mm | - | 13 W/m² | - |
| 1788115016 | 14.44° C | 13% | 1004.6 hPa | 0 mm | - | 17 W/m² | - |
| 1788114716 | 14.44° C | 13% | 1004.6 hPa | 0 mm | - | 16 W/m² | - |
| 1788114416 | 15° C | 13% | 1004.7 hPa | 0 mm | - | 14 W/m² | - |
| 1788114116 | 14.44° C | 12% | 1004.8 hPa | 0.25 mm | - | 15 W/m² | - |
* Rain latest hour (hover to see other rain measurements)
** Current wind speed in m/s (hover to see current wind gust speed)